User: anonymous   Login
Location: Mentone
(34.5413°N, 85.5351°W)
Time: 00:25:43
(UTC-05:00)
Language:

SL-8 R/B - Orbit

View from above orbital plane
View from above orbital plane
View from above satellite
View from above satellite

Ground track
Ground track

The orbit data is extracted from the following two-line orbital elements,

1 33066U 08031G   15089.00793802  .00000597  00000-0  13326-3 0  9991
2 33066 048.4438 299.1225 0008058 291.5059 222.3061 14.69160899363611
Epoch (UTC): 30 March 2015 00:11:25
Eccentricity: 0.0008058
inclination: 48.4438°
perigee height: 658 km
apogee height: 669 km
right ascension of ascending node: 299.1225°
argument of perigee: 291.5059°
revolutions per day: 14.69160899
mean anomaly at epoch: 222.3061°
orbit number at epoch: 36361

The dashed part of the orbit path shows where the satellite is in the earth's shadow,  

DLR